"read_dt","SO2 (ppb)","flags","PMT voltage (V)","lamp voltage (V)","lamp intensity (Hz)","internal temp (C)","react chamber temp (C)","sample flow (l/min)","pres (mmHg)","SO2 bkg (ppb)","SO2 coefficient"
2015-11-08 00:00:00,1732E-3,5C000400,-0724,0829,12211,021.4,045.3,0.268,764.3,01.16,0.508
2015-11-08 00:01:00,1727E-3,5C000400,-0724,0829,12156,021.4,045.3,0.268,764.3,01.16,0.508
2015-11-08 00:02:00,1838E-3,5C000400,-0724,0829,12292,021.4,045.3,0.267,764.3,01.16,0.508
2015-11-08 00:03:00,1698E-3,5C000400,-0724,0829,12274,021.4,045.3,0.267,764.3,01.16,0.508
2015-11-08 00:04:00,1802E-3,5C000400,-0724,0828,12215,021.4,045.3,0.267,764.3,01.16,0.508
2015-11-08 00:05:00,1869E-3,5C000400,-0724,0829,12147,021.4,045.3,0.267,764.3,01.16,0.508
2015-11-08 00:06:00,1740E-3,5C000400,-0724,0828,12126,021.4,045.3,0.267,764.3,01.16,0.508
2015-11-08 00:07:00,1755E-3,5C000400,-0724,0829,12193,021.4,045.3,0.267,764.3,01.16,0.508
2015-11-08 00:08:00,1758E-3,5C000400,-0724,0828,12120,021.4,045.3,0.267,764.2,01.16,0.508
2015-11-08 00:09:00,1718E-3,5C000400,-0724,0828,12158,021.4,045.3,0.267,764.2,01.16,0.508
2015-11-08 00:10:00,1763E-3,5C000400,-0724,0829,12127,021.4,045.3,0.267,764.2,01.16,0.508
2015-11-08 00:11:00,1856E-3,5C000400,-0724,0829,12224,021.4,045.3,0.267,764.2,01.16,0.508
2015-11-08 00:12:00,1735E-3,5C000400,-0724,0829,12240,021.4,045.3,0.267,764.3,01.16,0.508
2015-11-08 00:13:00,1736E-3,5C000400,-0724,0828,12107,021.4,045.3,0.267,764.3,01.16,0.508
2015-11-08 00:14:00,1801E-3,5C000400,-0724,0828,12209,021.4,045.3,0.267,764.3,01.16,0.508
2015-11-08 00:15:00,1728E-3,5C000400,-0724,0829,12171,021.4,045.3,0.268,764.2,01.16,0.508
2015-11-08 00:16:00,1823E-3,5C000400,-0724,0829,12134,021.4,045.2,0.268,764.2,01.16,0.508
2015-11-08 00:17:00,1685E-3,5C000400,-0724,0829,12197,021.4,045.3,0.268,764.2,01.16,0.508
2015-11-08 00:18:00,1765E-3,5C000400,-0724,0829,12236,021.4,045.3,0.268,764.2,01.16,0.508
2015-11-08 00:19:00,1828E-3,5C000400,-0724,0829,12067,021.4,045.3,0.268,764.2,01.16,0.508
2015-11-08 00:20:00,1705E-3,5C000400,-0724,0829,12256,021.4,045.3,0.268,764.2,01.16,0.508
2015-11-08 00:21:00,1840E-3,5C000400,-0724,0829,12275,021.4,045.3,0.268,764.2,01.16,0.508
2015-11-08 00:22:00,1814E-3,5C000400,-0724,0830,12281,021.4,045.3,0.268,764.2,01.16,0.508
2015-11-08 00:23:00,1758E-3,5C000400,-0724,0827,12103,021.4,045.3,0.268,764.2,01.16,0.508
2015-11-08 00:24:00,1778E-3,5C000400,-0724,0829,12168,021.4,045.3,0.267,764.2,01.16,0.508
2015-11-08 00:25:00,1639E-3,5C000400,-0724,0829,12220,021.4,045.3,0.268,764.1,01.16,0.508
2015-11-08 00:26:00,1772E-3,5C000400,-0724,0828,12218,021.4,045.3,0.268,764.2,01.16,0.508
2015-11-08 00:27:00,1745E-3,5C000400,-0724,0828,12259,021.4,045.3,0.267,764.2,01.16,0.508
2015-11-08 00:28:00,1706E-3,5C000400,-0724,0829,12262,021.4,045.3,0.267,764.2,01.16,0.508
2015-11-08 00:29:00,1870E-3,5C000400,-0724,0829,12270,021.4,045.3,0.267,764.2,01.16,0.508
2015-11-08 00:30:00,1819E-3,5C000400,-0724,0829,12439,021.4,045.3,0.267,764.2,01.16,0.508
2015-11-08 00:31:00,1791E-3,5C000400,-0724,0827,12247,021.4,045.3,0.267,764.2,01.16,0.508
2015-11-08 00:32:00,1741E-3,5C000400,-0724,0829,12261,021.4,045.3,0.267,764.1,01.16,0.508
2015-11-08 00:33:00,1702E-3,5C000400,-0724,0829,12192,021.4,045.3,0.267,764.1,01.16,0.508
2015-11-08 00:34:00,1706E-3,5C000400,-0724,0829,12236,021.4,045.3,0.267,764.1,01.16,0.508
2015-11-08 00:35:00,1667E-3,5C000400,-0724,0828,12253,021.4,045.3,0.267,764.1,01.16,0.508
2015-11-08 00:36:00,1804E-3,5C000400,-0724,0828,12242,021.4,045.3,0.267,764.1,01.16,0.508
2015-11-08 00:37:00,1709E-3,5C000400,-0724,0829,12264,021.4,045.3,0.267,764.0,01.16,0.508
2015-11-08 00:38:00,1826E-3,5C000400,-0724,0829,12169,021.4,045.3,0.267,764.1,01.16,0.508
2015-11-08 00:39:00,1906E-3,5C000400,-0724,0829,12219,021.4,045.3,0.267,764.0,01.16,0.508
2015-11-08 00:40:00,1761E-3,5C000400,-0724,0829,12149,021.4,045.3,0.267,764.0,01.16,0.508
2015-11-08 00:41:00,1837E-3,5C000400,-0724,0829,12065,021.4,045.3,0.267,764.0,01.16,0.508
2015-11-08 00:42:00,1762E-3,5C000400,-0724,0828,12261,021.4,045.3,0.267,764.1,01.16,0.508
2015-11-08 00:43:00,1838E-3,5C000400,-0724,0828,12160,021.4,045.3,0.267,764.1,01.16,0.508
2015-11-08 00:44:00,1762E-3,5C000400,-0724,0829,12235,021.5,045.2,0.267,764.1,01.16,0.508
2015-11-08 00:45:00,1754E-3,5C000400,-0724,0828,12152,021.4,045.3,0.267,764.1,01.16,0.508
2015-11-08 00:46:00,1762E-3,5C000400,-0724,0829,12209,021.4,045.3,0.267,764.1,01.16,0.508
2015-11-08 00:47:00,1690E-3,5C000400,-0724,0829,12295,021.4,045.3,0.267,764.0,01.16,0.508
2015-11-08 00:48:00,1755E-3,5C000400,-0724,0828,12322,021.4,045.3,0.267,763.9,01.16,0.508
2015-11-08 00:49:00,1676E-3,5C000400,-0724,0828,12149,021.4,045.3,0.267,763.8,01.16,0.508
2015-11-08 00:50:00,1803E-3,5C000400,-0724,0828,12311,021.4,045.3,0.267,763.9,01.16,0.508
2015-11-08 00:51:00,1756E-3,5C000400,-0724,0828,12220,021.5,045.3,0.267,763.9,01.16,0.508
2015-11-08 00:52:00,1640E-3,5C000400,-0724,0829,12163,021.4,045.3,0.267,763.9,01.16,0.508
2015-11-08 00:53:00,1723E-3,5C000400,-0724,0829,12169,021.4,045.3,0.267,764.0,01.16,0.508
2015-11-08 00:54:00,1725E-3,5C000400,-0724,0829,12172,021.5,045.3,0.267,763.9,01.16,0.508
2015-11-08 00:55:00,1845E-3,5C000400,-0724,0829,12261,021.4,045.3,0.267,763.8,01.16,0.508
2015-11-08 00:56:00,1778E-3,5C000400,-0724,0829,12156,021.4,045.3,0.267,763.8,01.16,0.508
2015-11-08 00:57:00,1715E-3,5C000400,-0724,0829,12108,021.4,045.3,0.267,763.8,01.16,0.508
2015-11-08 00:58:00,1695E-3,5C000400,-0724,0828,12154,021.4,045.3,0.267,763.8,01.16,0.508
2015-11-08 00:59:00,1617E-3,5C000400,-0724,0830,12122,021.4,045.3,0.267,763.8,01.16,0.508
2015-11-08 01:00:00,1726E-3,5C000400,-0724,0829,12078,021.4,045.3,0.267,763.7,01.16,0.508
2015-11-08 01:01:00,1715E-3,5C000400,-0724,0829,12186,021.4,045.2,0.267,763.8,01.16,0.508
2015-11-08 01:02:00,1877E-3,5C000400,-0724,0829,12242,021.4,045.3,0.267,763.8,01.16,0.508
2015-11-08 01:03:00,1701E-3,5C000400,-0724,0829,12201,021.4,045.3,0.267,763.7,01.16,0.508
2015-11-08 01:04:00,1730E-3,5C000400,-0724,0829,12304,021.4,045.3,0.267,763.9,01.16,0.508
2015-11-08 01:05:00,1605E-3,5C000400,-0724,0829,12156,021.4,045.3,0.267,763.7,01.16,0.508
2015-11-08 01:06:00,1746E-3,5C000400,-0724,0828,12288,021.5,045.3,0.267,763.8,01.16,0.508
2015-11-08 01:07:00,1777E-3,5C000400,-0724,0829,12346,021.5,045.3,0.267,763.8,01.16,0.508
2015-11-08 01:08:00,1858E-3,5C000400,-0724,0829,12207,021.4,045.3,0.267,763.6,01.16,0.508
2015-11-08 01:09:00,1745E-3,5C000400,-0724,0828,12314,021.4,045.3,0.267,763.7,01.16,0.508
2015-11-08 01:10:00,1775E-3,5C000400,-0724,0829,12254,021.5,045.3,0.267,763.7,01.16,0.508
2015-11-08 01:11:00,1817E-3,5C000400,-0724,0829,12108,021.5,045.3,0.267,763.8,01.16,0.508
2015-11-08 01:12:00,1780E-3,5C000400,-0724,0828,12170,021.5,045.3,0.267,764.0,01.16,0.508
2015-11-08 01:13:00,1689E-3,5C000400,-0724,0828,12216,021.5,045.3,0.267,764.0,01.16,0.508
2015-11-08 01:14:00,1770E-3,5C000400,-0724,0828,12165,021.4,045.3,0.267,763.9,01.16,0.508
2015-11-08 01:15:00,1781E-3,5C000400,-0724,0829,12156,021.5,045.3,0.268,763.8,01.16,0.508
2015-11-08 01:16:00,1813E-3,5C000400,-0724,0829,12305,021.4,045.3,0.268,763.7,01.16,0.508
2015-11-08 01:17:00,1786E-3,5C000400,-0724,0829,12284,021.5,045.3,0.267,763.8,01.16,0.508
2015-11-08 01:18:00,1750E-3,5C000400,-0724,0829,12205,021.4,045.3,0.267,763.8,01.16,0.508
2015-11-08 01:19:00,1625E-3,5C000400,-0724,0829,12212,021.4,045.3,0.267,763.8,01.16,0.508
2015-11-08 01:20:00,1724E-3,5C000400,-0724,0828,12128,021.4,045.3,0.267,763.8,01.16,0.508
2015-11-08 01:21:00,1834E-3,5C000400,-0724,0828,12245,021.4,045.3,0.267,763.8,01.16,0.508
2015-11-08 01:22:00,1843E-3,5C000400,-0724,0828,12112,021.4,045.3,0.267,763.8,01.16,0.508
2015-11-08 01:23:00,1682E-3,5C000400,-0724,0828,12236,021.4,045.3,0.267,763.6,01.16,0.508
2015-11-08 01:24:00,1835E-3,5C000400,-0724,0829,12187,021.5,045.3,0.267,763.7,01.16,0.508
2015-11-08 01:25:00,1724E-3,5C000400,-0724,0828,12197,021.4,045.2,0.267,763.8,01.16,0.508
2015-11-08 01:26:00,1832E-3,5C000400,-0724,0828,12078,021.4,045.3,0.267,763.7,01.16,0.508
2015-11-08 01:27:00,1717E-3,5C000400,-0724,0829,12312,021.4,045.3,0.267,763.7,01.16,0.508
2015-11-08 01:28:00,1873E-3,5C000400,-0724,0829,12278,021.4,045.3,0.267,763.6,01.16,0.508
2015-11-08 01:29:00,1770E-3,5C000400,-0724,0829,12161,021.5,045.3,0.267,763.6,01.16,0.508
2015-11-08 01:30:00,1740E-3,5C000400,-0724,0828,12256,021.4,045.3,0.267,763.6,01.16,0.508
2015-11-08 01:31:00,1834E-3,5C000400,-0724,0828,12242,021.4,045.3,0.267,763.5,01.16,0.508
2015-11-08 01:32:00,1753E-3,5C000400,-0724,0829,12156,021.5,045.3,0.267,763.4,01.16,0.508
2015-11-08 01:33:00,1783E-3,5C000400,-0724,0829,12176,021.5,045.3,0.267,763.4,01.16,0.508
2015-11-08 01:34:00,1639E-3,5C000400,-0724,0829,12176,021.5,045.3,0.267,763.5,01.16,0.508
2015-11-08 01:35:00,1725E-3,5C000400,-0724,0829,12173,021.5,045.3,0.268,763.4,01.16,0.508
2015-11-08 01:36:00,1916E-3,5C000400,-0724,0828,12125,021.4,045.3,0.268,763.5,01.16,0.508
2015-11-08 01:37:00,1741E-3,5C000400,-0724,0829,12327,021.5,045.3,0.267,763.5,01.16,0.508
2015-11-08 01:38:00,1734E-3,5C000400,-0724,0829,12218,021.4,045.3,0.267,763.3,01.16,0.508
2015-11-08 01:39:00,1765E-3,5C000400,-0724,0829,12238,021.5,045.3,0.267,763.2,01.16,0.508
2015-11-08 01:40:00,1804E-3,5C000400,-0724,0828,12050,021.5,045.3,0.267,763.4,01.16,0.508
2015-11-08 01:41:00,1755E-3,5C000400,-0724,0829,12148,021.5,045.3,0.267,763.4,01.16,0.508
2015-11-08 01:42:00,1728E-3,5C000400,-0724,0829,12242,021.5,045.3,0.267,763.1,01.16,0.508
2015-11-08 01:43:00,1671E-3,5C000400,-0724,0829,12198,021.5,045.3,0.267,763.2,01.16,0.508
2015-11-08 01:44:00,1637E-3,5C000400,-0724,0828,12266,021.5,045.3,0.267,763.4,01.16,0.508
2015-11-08 01:45:00,1743E-3,5C000400,-0724,0828,12142,021.5,045.3,0.267,763.2,01.16,0.508
2015-11-08 01:46:00,1696E-3,5C000400,-0724,0828,12255,021.4,045.3,0.267,763.0,01.16,0.508
2015-11-08 01:47:00,1755E-3,5C000400,-0724,0828,12167,021.5,045.3,0.267,763.1,01.16,0.508
2015-11-08 01:48:00,1720E-3,5C000400,-0724,0829,12198,021.4,045.3,0.267,762.9,01.16,0.508
2015-11-08 01:49:00,1663E-3,5C000400,-0724,0829,12220,021.5,045.3,0.267,763.0,01.16,0.508
2015-11-08 01:50:00,1792E-3,5C000400,-0724,0828,12219,021.5,045.3,0.267,763.1,01.16,0.508
2015-11-08 01:51:00,1791E-3,5C000400,-0724,0828,12129,021.5,045.3,0.267,763.3,01.16,0.508
2015-11-08 01:52:00,1710E-3,5C000400,-0724,0829,12224,021.5,045.3,0.267,763.4,01.16,0.508
2015-11-08 01:53:00,1758E-3,5C000400,-0724,0828,12181,021.5,045.3,0.267,763.3,01.16,0.508
2015-11-08 01:54:00,1811E-3,5C000400,-0724,0828,12260,021.5,045.2,0.267,763.1,01.16,0.508
2015-11-08 01:55:00,1795E-3,5C000400,-0724,0829,12247,021.5,045.3,0.267,763.4,01.16,0.508
2015-11-08 01:56:00,1906E-3,5C000400,-0724,0828,12158,021.5,045.3,0.267,763.4,01.16,0.508
2015-11-08 01:57:00,1684E-3,5C000400,-0724,0829,12181,021.5,045.3,0.267,763.3,01.16,0.508
2015-11-08 01:58:00,1749E-3,5C000400,-0724,0829,12110,021.4,045.3,0.267,763.3,01.16,0.508
2015-11-08 01:59:00,1767E-3,5C000400,-0724,0828,12335,021.5,045.3,0.268,763.4,01.16,0.508
2015-11-08 02:00:00,1797E-3,5C000400,-0724,0828,12367,021.5,045.3,0.267,763.2,01.16,0.508
2015-11-08 02:01:00,1832E-3,5C000400,-0724,0828,12324,021.5,045.3,0.267,763.3,01.16,0.508
2015-11-08 02:02:00,1706E-3,5C000400,-0724,0829,12132,021.4,045.3,0.267,763.3,01.16,0.508
2015-11-08 02:03:00,1845E-3,5C000400,-0724,0829,12115,021.5,045.3,0.267,763.2,01.16,0.508
2015-11-08 02:04:00,1784E-3,5C000400,-0724,0828,12224,021.5,045.3,0.267,763.3,01.16,0.508
2015-11-08 02:05:00,1679E-3,5C000400,-0724,0829,12159,021.5,045.3,0.267,763.3,01.16,0.508
2015-11-08 02:06:00,1774E-3,5C000400,-0724,0828,12208,021.4,045.3,0.267,763.3,01.16,0.508
2015-11-08 02:07:00,1838E-3,5C000400,-0724,0829,12216,021.5,045.3,0.267,763.2,01.16,0.508
2015-11-08 02:08:00,1943E-3,5C000400,-0724,0828,12048,021.4,045.3,0.267,763.3,01.16,0.508
2015-11-08 02:09:00,1879E-3,5C000400,-0724,0828,12258,021.5,045.3,0.267,763.2,01.16,0.508
2015-11-08 02:10:00,1731E-3,5C000400,-0724,0828,12187,021.4,045.3,0.267,763.0,01.16,0.508
2015-11-08 02:11:00,1809E-3,5C000400,-0724,0828,12031,021.4,045.3,0.267,763.2,01.16,0.508
2015-11-08 02:12:00,1748E-3,5C000400,-0724,0828,12108,021.4,045.3,0.267,763.4,01.16,0.508
2015-11-08 02:13:00,1861E-3,5C000400,-0724,0828,12171,021.4,045.2,0.267,763.5,01.16,0.508
2015-11-08 02:14:00,1792E-3,5C000400,-0724,0829,12210,021.5,045.3,0.267,763.0,01.16,0.508
2015-11-08 02:15:00,1766E-3,5C000400,-0724,0829,12121,021.4,045.3,0.267,763.2,01.16,0.508
2015-11-08 02:16:00,1811E-3,5C000400,-0724,0829,12257,021.4,045.3,0.267,762.9,01.16,0.508
2015-11-08 02:17:00,1723E-3,5C000400,-0724,0828,12233,021.4,045.3,0.267,763.1,01.16,0.508
2015-11-08 02:18:00,1935E-3,5C000400,-0724,0829,12194,021.5,045.3,0.267,763.0,01.16,0.508
2015-11-08 02:19:00,1700E-3,5C000400,-0724,0829,12212,021.5,045.3,0.267,762.8,01.16,0.508
2015-11-08 02:20:00,1812E-3,5C000400,-0724,0828,12222,021.5,045.3,0.267,762.9,01.16,0.508
2015-11-08 02:21:00,1748E-3,5C000400,-0724,0829,12105,021.4,045.3,0.267,763.1,01.16,0.508
2015-11-08 02:22:00,1755E-3,5C000400,-0724,0829,12094,021.5,045.2,0.267,762.8,01.16,0.508
2015-11-08 02:23:00,1895E-3,5C000400,-0724,0829,12104,021.5,045.2,0.267,763.0,01.16,0.508
2015-11-08 02:24:00,1790E-3,5C000400,-0724,0828,12328,021.4,045.3,0.267,762.9,01.16,0.508
2015-11-08 02:25:00,1618E-3,5C000400,-0724,0829,12189,021.5,045.3,0.267,762.7,01.16,0.508
2015-11-08 02:26:00,1687E-3,5C000400,-0724,0829,12215,021.5,045.3,0.267,762.7,01.16,0.508
2015-11-08 02:27:00,1728E-3,5C000400,-0724,0828,12212,021.4,045.2,0.268,762.8,01.16,0.508
2015-11-08 02:28:00,1736E-3,5C000400,-0724,0829,12224,021.5,045.2,0.267,762.9,01.16,0.508
2015-11-08 02:29:00,1754E-3,5C000400,-0724,0829,12275,021.4,045.3,0.267,762.7,01.16,0.508
2015-11-08 02:30:00,1720E-3,5C000400,-0724,0829,12251,021.5,045.3,0.267,762.6,01.16,0.508
2015-11-08 02:31:00,1768E-3,5C000400,-0724,0829,12202,021.4,045.3,0.267,762.8,01.16,0.508
2015-11-08 02:32:00,1767E-3,5C000400,-0724,0830,12327,021.5,045.2,0.267,763.0,01.16,0.508
2015-11-08 02:33:00,1767E-3,5C000400,-0724,0828,12151,021.4,045.3,0.267,762.9,01.16,0.508
2015-11-08 02:34:00,1768E-3,5C000400,-0724,0829,12220,021.4,045.3,0.267,762.8,01.16,0.508
2015-11-08 02:35:00,1844E-3,5C000400,-0724,0829,12191,021.4,045.3,0.267,763.0,01.16,0.508
2015-11-08 02:36:00,1838E-3,5C000400,-0724,0829,12253,021.4,045.3,0.267,762.6,01.16,0.508
2015-11-08 02:37:00,1809E-3,5C000400,-0724,0829,12066,021.5,045.3,0.267,762.6,01.16,0.508
2015-11-08 02:38:00,1686E-3,5C000400,-0724,0829,12229,021.4,045.3,0.267,762.9,01.16,0.508
2015-11-08 02:39:00,1791E-3,5C000400,-0724,0829,12323,021.5,045.3,0.267,762.9,01.16,0.508
2015-11-08 02:40:00,1744E-3,5C000400,-0724,0829,12226,021.4,045.3,0.267,762.9,01.16,0.508
2015-11-08 02:41:00,1803E-3,5C000400,-0724,0829,12259,021.4,045.3,0.267,762.8,01.16,0.508
2015-11-08 02:42:00,1803E-3,5C000400,-0724,0829,12272,021.4,045.3,0.267,762.6,01.16,0.508
2015-11-08 02:43:00,1655E-3,5C000400,-0724,0829,12295,021.4,045.3,0.267,762.7,01.16,0.508
2015-11-08 02:44:00,1700E-3,5C000400,-0724,0829,12223,021.4,045.3,0.267,762.7,01.16,0.508
2015-11-08 02:45:00,1791E-3,5C000400,-0724,0828,12167,021.4,045.3,0.268,762.7,01.16,0.508
2015-11-08 02:46:00,1862E-3,5C000400,-0724,0828,12263,021.4,045.3,0.267,762.7,01.16,0.508
2015-11-08 02:47:00,1807E-3,5C000400,-0724,0829,12331,021.4,045.3,0.267,762.7,01.16,0.508
2015-11-08 02:48:00,1696E-3,5C000400,-0724,0829,12255,021.4,045.3,0.267,762.7,01.16,0.508
2015-11-08 02:49:00,1753E-3,5C000400,-0724,0830,12361,021.4,045.3,0.267,762.7,01.16,0.508
2015-11-08 02:50:00,1785E-3,5C000400,-0724,0829,12216,021.5,045.3,0.267,762.9,01.16,0.508
2015-11-08 02:51:00,1912E-3,5C000400,-0724,0829,12278,021.4,045.3,0.267,762.9,01.16,0.508
2015-11-08 02:52:00,1678E-3,5C000400,-0724,0829,12200,021.4,045.3,0.267,762.6,01.16,0.508
2015-11-08 02:53:00,1715E-3,5C000400,-0724,0829,12220,021.4,045.3,0.267,762.7,01.16,0.508
2015-11-08 02:54:00,1831E-3,5C000400,-0724,0828,12267,021.4,045.3,0.267,762.8,01.16,0.508
2015-11-08 02:55:00,1639E-3,5C000400,-0724,0829,12121,021.4,045.3,0.267,762.5,01.16,0.508
2015-11-08 02:56:00,1751E-3,5C000400,-0724,0829,12209,021.4,045.2,0.267,762.6,01.16,0.508
2015-11-08 02:57:00,1804E-3,5C000400,-0724,0829,12268,021.4,045.3,0.267,762.8,01.16,0.508
2015-11-08 02:58:00,1801E-3,5C000400,-0724,0829,12279,021.4,045.3,0.267,762.5,01.16,0.508
2015-11-08 02:59:00,1777E-3,5C000400,-0724,0829,12178,021.4,045.2,0.267,762.5,01.16,0.508
2015-11-08 03:00:00,1872E-3,5C000400,-0724,0829,12112,021.4,045.3,0.267,762.5,01.16,0.508
2015-11-08 03:01:00,1766E-3,5C000400,-0724,0829,12246,021.4,045.2,0.267,762.6,01.16,0.508
2015-11-08 03:02:00,1773E-3,5C000400,-0724,0829,12306,021.4,045.3,0.267,762.5,01.16,0.508
2015-11-08 03:03:00,1747E-3,5C000400,-0724,0829,12293,021.4,045.3,0.267,762.7,01.16,0.508
2015-11-08 03:04:00,1795E-3,5C000400,-0724,0829,12172,021.4,045.3,0.268,762.7,01.16,0.508
2015-11-08 03:05:00,1825E-3,5C000400,-0724,0829,12204,021.4,045.3,0.268,762.9,01.16,0.508
2015-11-08 03:06:00,1815E-3,5C000400,-0724,0829,12248,021.4,045.2,0.268,762.7,01.16,0.508
2015-11-08 03:07:00,1774E-3,5C000400,-0724,0830,12177,021.4,045.2,0.268,762.9,01.16,0.508
2015-11-08 03:08:00,1737E-3,5C000400,-0724,0829,12208,021.4,045.2,0.267,762.7,01.16,0.508
2015-11-08 03:09:00,1773E-3,5C000400,-0724,0829,12262,021.4,045.3,0.267,762.6,01.16,0.508
2015-11-08 03:10:00,1748E-3,5C000400,-0724,0829,12246,021.4,045.3,0.267,762.5,01.16,0.508
2015-11-08 03:11:00,1820E-3,5C000400,-0724,0829,12119,021.4,045.3,0.268,763.0,01.16,0.508
2015-11-08 03:12:00,1818E-3,5C000400,-0724,0829,12157,021.4,045.3,0.267,763.0,01.16,0.508
2015-11-08 03:13:00,1636E-3,5C000400,-0724,0829,12357,021.4,045.3,0.267,762.6,01.16,0.508
2015-11-08 03:14:00,1748E-3,5C000400,-0724,0829,12203,021.4,045.2,0.267,762.5,01.16,0.508
2015-11-08 03:15:00,1782E-3,5C000400,-0724,0829,12143,021.4,045.3,0.268,763.0,01.16,0.508
2015-11-08 03:16:00,1877E-3,5C000400,-0724,0829,12028,021.4,045.2,0.268,762.6,01.16,0.508
2015-11-08 03:17:00,1675E-3,5C000400,-0724,0829,12031,021.4,045.3,0.268,762.4,01.16,0.508
2015-11-08 03:18:00,1736E-3,5C000400,-0724,0829,12308,021.4,045.3,0.268,763.2,01.16,0.508
2015-11-08 03:19:00,1808E-3,5C000400,-0724,0829,12276,021.4,045.3,0.267,762.7,01.16,0.508
2015-11-08 03:20:00,1624E-3,5C000400,-0724,0829,12184,021.4,045.3,0.267,762.8,01.16,0.508
2015-11-08 03:21:00,1706E-3,5C000400,-0724,0829,12187,021.4,045.3,0.267,762.6,01.16,0.508
2015-11-08 03:22:00,1712E-3,5C000400,-0724,0829,12106,021.4,045.3,0.267,762.7,01.16,0.508
2015-11-08 03:23:00,1830E-3,5C000400,-0724,0829,12206,021.4,045.3,0.267,762.7,01.16,0.508
2015-11-08 03:24:00,1841E-3,5C000400,-0724,0829,12246,021.4,045.2,0.267,762.7,01.16,0.508
2015-11-08 03:25:00,1730E-3,5C000400,-0724,0829,12192,021.4,045.3,0.267,762.6,01.16,0.508
2015-11-08 03:26:00,1761E-3,5C000400,-0724,0829,12104,021.4,045.3,0.267,762.7,01.16,0.508
2015-11-08 03:27:00,1786E-3,5C000400,-0724,0829,12028,021.4,045.3,0.267,762.7,01.16,0.508
2015-11-08 03:28:00,1759E-3,5C000400,-0724,0828,12274,021.4,045.3,0.267,762.5,01.16,0.508
2015-11-08 03:29:00,1761E-3,5C000400,-0724,0829,12180,021.3,045.3,0.268,762.7,01.16,0.508
2015-11-08 03:30:00,1742E-3,5C000400,-0724,0830,12273,021.3,045.3,0.267,762.5,01.16,0.508
2015-11-08 03:31:00,1810E-3,5C000400,-0724,0829,12090,021.4,045.3,0.267,762.5,01.16,0.508
2015-11-08 03:32:00,1844E-3,5C000400,-0724,0829,12218,021.3,045.3,0.267,762.5,01.16,0.508
2015-11-08 03:33:00,1771E-3,5C000400,-0724,0829,12073,021.4,045.3,0.267,762.5,01.16,0.508
2015-11-08 03:34:00,1926E-3,5C000400,-0724,0829,12218,021.4,045.2,0.267,762.7,01.16,0.508
2015-11-08 03:35:00,1784E-3,5C000400,-0724,0829,12211,021.4,045.2,0.267,762.5,01.16,0.508
2015-11-08 03:36:00,1781E-3,5C000400,-0724,0829,12267,021.4,045.3,0.267,762.7,01.16,0.508
2015-11-08 03:37:00,1741E-3,5C000400,-0724,0830,12147,021.4,045.3,0.268,762.7,01.16,0.508
2015-11-08 03:38:00,1679E-3,5C000400,-0724,0829,12187,021.4,045.3,0.267,762.6,01.16,0.508
2015-11-08 03:39:00,1707E-3,5C000400,-0724,0829,12117,021.4,045.3,0.267,762.6,01.16,0.508
2015-11-08 03:40:00,1831E-3,5C000400,-0724,0829,12136,021.3,045.3,0.267,762.6,01.16,0.508
2015-11-08 03:41:00,1788E-3,5C000400,-0724,0829,12096,021.4,045.3,0.267,762.6,01.16,0.508
2015-11-08 03:42:00,1799E-3,5C000400,-0724,0829,12318,021.4,045.3,0.267,762.6,01.16,0.508
2015-11-08 03:43:00,1698E-3,5C000400,-0724,0829,12187,021.3,045.3,0.267,762.5,01.16,0.508
2015-11-08 03:44:00,1774E-3,5C000400,-0724,0829,12181,021.4,045.3,0.268,762.4,01.16,0.508
2015-11-08 03:45:00,1841E-3,5C000400,-0724,0829,12331,021.3,045.3,0.268,762.5,01.16,0.508
2015-11-08 03:46:00,1756E-3,5C000400,-0724,0829,12160,021.3,045.3,0.267,762.5,01.16,0.508
2015-11-08 03:47:00,1741E-3,5C000400,-0724,0830,12089,021.4,045.3,0.267,762.6,01.16,0.508
2015-11-08 03:48:00,1722E-3,5C000400,-0724,0829,12225,021.3,045.2,0.267,762.7,01.16,0.508
2015-11-08 03:49:00,1675E-3,5C000400,-0724,0829,12047,021.3,045.3,0.267,762.5,01.16,0.508
2015-11-08 03:50:00,1705E-3,5C000400,-0724,0830,12264,021.3,045.3,0.267,762.6,01.16,0.508
2015-11-08 03:51:00,1698E-3,5C000400,-0724,0829,12153,021.3,045.3,0.267,762.7,01.16,0.508
2015-11-08 03:52:00,1758E-3,5C000400,-0724,0829,12148,021.3,045.3,0.267,762.4,01.16,0.508
2015-11-08 03:53:00,1822E-3,5C000400,-0724,0829,12265,021.3,045.2,0.268,762.5,01.16,0.508
2015-11-08 03:54:00,1825E-3,5C000400,-0724,0829,12050,021.4,045.3,0.268,762.6,01.16,0.508
2015-11-08 03:55:00,1667E-3,5C000400,-0724,0829,12141,021.3,045.2,0.267,762.6,01.16,0.508
2015-11-08 03:56:00,1740E-3,5C000400,-0724,0828,12259,021.3,045.2,0.267,762.5,01.16,0.508
2015-11-08 03:57:00,1673E-3,5C000400,-0724,0828,12205,021.3,045.3,0.267,762.6,01.16,0.508
2015-11-08 03:58:00,1793E-3,5C000400,-0724,0829,12134,021.3,045.3,0.267,762.5,01.16,0.508
2015-11-08 03:59:00,1832E-3,5C000400,-0724,0830,12055,021.3,045.2,0.267,762.5,01.16,0.508
2015-11-08 04:00:00,1738E-3,5C000400,-0724,0830,12182,021.3,045.3,0.267,762.4,01.16,0.508
2015-11-08 04:01:00,1841E-3,5C000400,-0724,0828,12198,021.3,045.3,0.267,762.4,01.16,0.508
2015-11-08 04:02:00,1845E-3,5C000400,-0724,0829,12131,021.3,045.3,0.268,762.5,01.16,0.508
2015-11-08 04:03:00,1811E-3,5C000400,-0724,0829,12246,021.4,045.3,0.268,762.5,01.16,0.508
2015-11-08 04:04:00,1679E-3,5C000400,-0724,0829,12189,021.3,045.3,0.268,762.6,01.16,0.508
2015-11-08 04:05:00,1739E-3,5C000400,-0724,0829,12147,021.3,045.3,0.268,762.4,01.16,0.508
2015-11-08 04:06:00,1758E-3,5C000400,-0724,0829,12258,021.3,045.3,0.268,762.6,01.16,0.508
2015-11-08 04:07:00,1753E-3,5C000400,-0724,0829,12337,021.3,045.3,0.267,762.4,01.16,0.508
2015-11-08 04:08:00,1831E-3,5C000400,-0724,0829,12261,021.3,045.3,0.267,762.5,01.16,0.508
2015-11-08 04:09:00,1864E-3,5C000400,-0724,0829,12183,021.4,045.3,0.268,762.6,01.16,0.508
2015-11-08 04:10:00,1899E-3,5C000400,-0724,0828,12305,021.3,045.3,0.267,762.4,01.16,0.508
2015-11-08 04:11:00,1726E-3,5C000400,-0724,0829,12287,021.3,045.3,0.267,762.4,01.16,0.508
2015-11-08 04:12:00,1716E-3,5C000400,-0724,0829,12212,021.4,045.3,0.267,762.3,01.16,0.508
2015-11-08 04:13:00,1860E-3,5C000400,-0724,0828,12244,021.3,045.2,0.267,762.5,01.16,0.508
2015-11-08 04:14:00,1732E-3,5C000400,-0724,0830,12324,021.3,045.3,0.267,762.3,01.16,0.508
2015-11-08 04:15:00,1685E-3,5C000400,-0724,0829,12239,021.3,045.3,0.267,762.2,01.16,0.508
2015-11-08 04:16:00,1781E-3,5C000400,-0724,0830,12191,021.3,045.3,0.268,762.4,01.16,0.508
2015-11-08 04:17:00,1854E-3,5C000400,-0724,0829,12118,021.3,045.3,0.268,762.2,01.16,0.508
2015-11-08 04:18:00,1770E-3,5C000400,-0724,0829,12174,021.3,045.3,0.268,762.1,01.16,0.508
2015-11-08 04:19:00,1824E-3,5C000400,-0724,0829,12299,021.3,045.3,0.267,762.2,01.16,0.508
2015-11-08 04:20:00,1848E-3,5C000400,-0724,0829,12274,021.3,045.3,0.268,762.3,01.16,0.508